Home   Weather   Kohtla-Järve   Past weeks

Flag for Estonia Past Weather in Kohtla-Järve, Estonia — Yesterday and Last 2 Weeks

Now
33 °F

Rain showers. Low clouds.


Feels Like: 30 °F
Forecast: 20 / 33 °F
Wind: 3 mph from West

Location: Johvi

Current Time: Jan 23, 2017 at 5:05:28 pm

Latest Report: Jan 23, 2017 at 4:00 pm


Visibility: 4 mi

Pressure: 29.74 "Hg

Humidity: 95%

Dew Point: 32 °F

Location of Kohtla-JärveLocation

Past Weather in Kohtla-Järve — Graph

°F

Kohtla-Järve Temperature Yesterday

Maximum temperature yesterday: 38 °F (at 2:00 pm)
Minimum temperature yesterday: 26 °F (at 12:00 am)
Average temperature yesterday: 34 °F

High & Low Weather Summary for the Past Weeks

 TemperatureHumidityPressure
High38 °F (Jan 22, 2:00 pm)100% (Jan 14, 8:00 am)30.50 "Hg (Jan 14, 8:00 am)
Low17 °F (Jan 11, 9:00 am)58% (Jan 20, 6:00 am)29.18 "Hg (Jan 13, 5:00 am)
Average29 °F91%29.93 "Hg
* Reported Jan 8 3:00 pm — Jan 23 3:00 pm, Kohtla-Järve, Weather by CustomWeather, © 2017

Note: Actual official high and low records may vary slightly from our data, if they occured in-between our weather recording intervals... More about our weather records

Advertising

Kohtla-Järve Weather History for the Previous 24 Hours

Scroll right to see more
 ConditionsComfort  
Time TempWeatherWind HumidityBarometerVisibility
3:00 pm
Mon, Jan 23
34 °FFreezing rain. Low clouds.5 mph94%29.75 "Hg6 mi
2:00 pm34 °FLight rain. Low clouds.5 mph94%29.77 "Hg4 mi
1:00 pm34 °FRain showers. Low clouds.7 mph94%29.78 "Hg6 mi
12:00 pm34 °FRain showers. Low clouds.7 mph94%29.81 "Hg7 mi
11:00 am33 °FSprinkles. Low clouds.5 mph97%29.82 "Hg13 mi
10:00 am33 °FSnow flurries. Low clouds.3 mph97%29.85 "Hg2 mi
9:00 am33 °FRain showers. Low clouds.3 mph97%29.87 "Hg4 mi
8:00 am33 °FSnow flurries. Low clouds.6 mph95%29.88 "Hg4 mi
7:00 am33 °FFog.6 mph93%29.89 "Hg4 mi
6:00 am33 °FLow clouds.7 mph91%29.91 "Hg28 mi
5:00 am33 °FFog.6 mph96%29.93 "Hg2 mi
4:00 am33 °FLow clouds.5 mph97%29.95 "Hg10 mi
3:00 am34 °FLow clouds.3 mph96%29.97 "Hg19 mi
2:00 am34 °FLow clouds.7 mph97%29.98 "Hg10 mi
1:00 am34 °FLow clouds.7 mph97%29.99 "Hg7 mi
12:00 am35 °FLow clouds.7 mph95%29.99 "Hg17 mi
11:00 pm
Sun, Jan 22
35 °FLow clouds.3 mph93%30.01 "Hg25 mi
10:00 pm35 °FLow clouds.5 mph93%30.01 "Hg28 mi
9:00 pm35 °FLow clouds.3 mph92%30.02 "Hg25 mi
8:00 pm36 °FLow clouds.3 mph92%30.02 "Hg25 mi
7:00 pm35 °FLow clouds.3 mph93%30.02 "Hg31 mi
6:00 pm35 °FOvercast.6 mph91%30.02 "Hg31 mi
5:00 pm36 °FOvercast.6 mph87%30.02 "Hg31 mi
Weather by CustomWeather, © 2017

See weather overviewHow to use our weather pages